STARLINK-30294 (57651 NORAD) Tracking and Keplerian Element Data

This shows tracking and keplerian element data for the satellite.

Feedback or suggestion? Click here.




ElementValue
Catalog57651
NameSTARLINK-30294
Epoch Orbit2395
Epoch Day13.11395039
Epoch Year2024
RAAN35.6666
Inclination43.0011
Eccentricity0.0001037
Argument of Perigee268.6982
Mean Anonmoly91.3743
Mean Motion15.04483141
Decay Rate0.00021481
L11 57651U 23122V 24013.11395039 .00021481 00000+0 15197-2 0 9995
L22 57651 43.0011 35.6666 0001037 268.6982 91.3743 15.04483141 23956



Live tracking and technical data element details for STARLINK-30294 (NORAD 57651). STARLINK-30294 can be tracked NOW for your location showing map with azimuth and elevation plus other details from your city location.







IsCatalogInMostPopularTable: catalog: 57651, numindb: 42
Update: records affected: 1



GetName: 57651 STARLINK-30294

Hit Count: updated at: Thu, 29 Feb 2024 11:42:52 GMT